Regional Weather Roundup
Issued by NWS

Home | Current Version | Previous Version | Graphics & Text | Print | Product List | Glossary Off
Versions: 1 2 3 4 5 6 7 8 9 10 11 12 13 14 15 16 17 18 19 20 21 22 23 24 25 26 27 28 29 30 31 32 33 34 35 36 37 38 39 40 41 42 43 44 45 46 47 48 49 50

000
ASUS43 KLSX 101257
RWRMO

WEATHER SUMMARY FOR MISSOURI
NATIONAL WEATHER SERVICE SPRINGFIELD MO
700 AM CST WED FEB 10 2016

NOTE: "FAIR" INDICATES FEW OR NO CLOUDS BELOW 12,000 FEET WITH NO
       SIGNIFICANT WEATHER AND/OR OBSTRUCTIONS TO VISIBILITY.
       CURRENT SKY AND/OR WEATHER CONDITIONS ARE NOT AVAILABLE FOR
       CHILLICOTHE AND FARMINGTON.

MOZ001>031-035>038-043-044-053-054-101400-
...NORTHERN AND WESTERN MISSOURI...

CITY           SKY/WX    TMP DP  RH WIND       PRES   REMARKS
KANSAS CTY INT FLURRIES  24  15  68 S5        30.14F WCI  18
LEE`S SUMMIT   CLOUDY    24  14  65 S5        30.15F WCI  18
ST JOSEPH      FLURRIES  25  16  68 S7        30.13F WCI  17
CHILLICOTHE      N/A     20  15  81 CALM      30.16F

$$
MOZ066>068-077>081-088>096-101>105-101400-
...SOUTHWEST MISSOURI...

CITY           SKY/WX    TMP DP  RH WIND       PRES   REMARKS
SPRINGFIELD    MOCLDY    19  10  68 SW5       30.18S WCI  12
JOPLIN         CLOUDY    22  12  65 SW8       30.24F WCI  12

$$
MOZ032>034-039>042-045>050-055>058-069>072-101400-
...CENTRAL MISSOURI...

CITY           SKY/WX    TMP DP  RH WIND       PRES   REMARKS
COLUMBIA       NOT AVBL
JEFFERSON CITY CLOUDY    17   9  70 CALM      30.20F
ROLLA          CLOUDY    14   8  77 W5        30.13F WCI   6
SEDALIA        CLOUDY    20  12  71 W5        30.19R WCI  13

$$
MOZ051-052-059>065-101400-
...EAST CENTRAL MISSOURI...

CITY           SKY/WX    TMP DP  RH WIND       PRES   REMARKS
ST LOUIS INTL  MOCLDY    15   6  67 W9        30.16S WCI   3

$$
MOZ072>076-082>087-097>100-106>115-101400-
...SOUTH CENTRAL AND SOUTHEAST MISSOURI...

CITY           SKY/WX    TMP DP  RH WIND       PRES   REMARKS
CAPE GIRARDEAU PTCLDY    12   6  77 W7        30.22R WCI   1
POPLAR BLUFF   CLEAR     18   6  59 SW3       30.23R
WEST PLAINS    CLEAR     16   6  65 CALM      30.17F

$$


USA.gov is the U.S. government's official web portal to all federal, state and local government web resources and services.